{"data":{"norad_id":45689,"epoch":"2026-09-20T03:33:48.030048Z","epoch_age_seconds":48562,"freshness":"FRESH","line1":"1 45689U 20035AJ  26263.14847257  .00044757  00000+0  98342-3 0  9994","line2":"2 45689  53.1528 218.5203 0002754  93.5648 266.5674 15.43595642348771","mean_motion":15.43595642,"eccentricity":0.0002754,"inclination_deg":53.1528,"raan_deg":218.5203,"arg_perigee_deg":93.5648,"mean_anomaly_deg":266.5674,"bstar":0.00098342,"rev_number":34877,"period_min":93.288680067419,"perigee_km":433.6311506377,"apogee_km":437.38410609901,"semimajor_km":6813.6446283684,"source":"CELESTRAK","updated_at":"2026-09-20T09:00:38.452875Z"}}